Home   Weather   Siegen   Past weeks

Flag for Germany Past Weather in Siegen, North Rhine-Westphalia, Germany — Yesterday and Last 2 Weeks

Now
41 °F

Scattered clouds.


Feels Like: 36 °F
Forecast: 28 / 50 °F
Wind: 8 mph from Northwest

Location: Hessen

Current Time: Apr 26, 2017 at 7:40:57 pm

Latest Report: Apr 26, 2017 at 7:20 pm


Visibility: N/A

Pressure: 29.86 "Hg

Humidity: 57%

Dew Point: 27 °F

Location of SiegenLocation

Past Weather in Siegen — Graph

°F

Siegen Temperature Yesterday

Maximum temperature yesterday: 41 °F (at 1:50 pm)
Minimum temperature yesterday: 36 °F (at 7:50 am)
Average temperature yesterday: 39 °F

High & Low Weather Summary for the Past Weeks

 TemperatureHumidityPressure
High54 °F (Apr 12, 1:20 pm)100% (Apr 13, 7:20 am)30.54 "Hg (Apr 13, 7:20 am)
Low28 °F (Apr 19, 7:50 am)37% (Apr 20, 4:20 pm)29.68 "Hg (Apr 25, 7:20 am)
Average41 °F72%30.08 "Hg
* Reported Apr 11 6:20 pm — Apr 26 6:20 pm, Siegen, Weather by CustomWeather, © 2017

Note: Actual official high and low records may vary slightly from our data, if they occured in-between our weather recording intervals... More about our weather records

Advertising

Siegen Weather History for the Previous 24 Hours

Scroll right to see more
 ConditionsComfort  
Time TempWeatherWind HumidityBarometerVisibility
6:20 pm
Wed, Apr 26
43 °FScattered showers. Partly sunny.7 mph53%29.86 "HgN/A
5:50 pm43 °FScattered showers. Partly sunny.6 mph57%29.86 "HgN/A
5:20 pm39 °FSnow flurries. Broken clouds.5 mph65%29.86 "HgN/A
4:50 pm45 °FBroken clouds.7 mph49%29.83 "HgN/A
4:20 pm43 °FBroken clouds.5 mph57%29.83 "HgN/A
3:50 pm43 °FBroken clouds.5 mph49%29.83 "HgN/A
3:20 pm43 °FScattered clouds.8 mph46%29.83 "HgN/A
2:50 pm43 °FScattered clouds.7 mph46%29.83 "HgN/A
2:20 pm43 °FScattered showers. Scattered clouds.6 mph39%29.83 "HgN/A
1:50 pm43 °FScattered clouds.6 mph42%29.83 "HgN/A
1:20 pm43 °FScattered showers. Scattered clouds.5 mph39%29.83 "HgN/A
12:50 pm41 °FScattered clouds.7 mph49%29.83 "HgN/A
12:20 pm41 °FScattered clouds.8 mph53%29.83 "HgN/A
11:50 am41 °FScattered clouds.7 mph53%29.83 "HgN/A
11:20 am39 °FScattered clouds.8 mph61%29.83 "HgN/A
10:50 am37 °FScattered clouds.5 mph65%29.83 "HgN/A
10:20 am37 °FScattered clouds.6 mph70%29.83 "HgN/A
9:50 am36 °FScattered clouds.7 mph75%29.83 "HgN/A
9:20 am36 °FPassing clouds.6 mph81%29.83 "HgN/A
8:50 am34 °FSunny.6 mph87%29.83 "Hg10 mi
8:20 am34 °FSunny.5 mph87%29.80 "Hg10 mi
7:50 am34 °FSunny.6 mph87%29.80 "Hg10 mi
7:20 am32 °FSunny.6 mph93%29.80 "Hg10 mi
8:50 pm
Tue, Apr 25
36 °FPassing clouds.2 mph81%29.77 "HgN/A
8:20 pm36 °FSleet. Broken clouds.8 mph81%29.77 "HgN/A
7:50 pm37 °FScattered showers. Broken clouds.12 mph70%29.77 "HgN/A
7:20 pm39 °FScattered showers. Scattered clouds.7 mph65%29.77 "HgN/A
Weather by CustomWeather, © 2017

See weather overviewHow to use our weather pages